Regional Weather Roundup
Issued by NWS

Home | Current Version | Previous Version | Graphics & Text | Print | Product List | Glossary On
Versions: 1 2 3 4 5 6 7 8 9 10 11 12 13 14 15 16 17 18 19 20 21 22 23 24 25 26 27 28 29 30 31 32 33 34 35 36 37 38 39 40 41 42 43 44 45 46 47 48 49 50
000
ASUS43 KMPX 301501
RWRMN
WEATHER ROUNDUP FOR MINNESOTA
NATIONAL WEATHER SERVICE TWIN CITIES/CHANHASSEN MN
1000 AM CDT THU OCT 30 2014


NOTE: "FAIR" INDICATES FEW OR NO CLOUDS BELOW 12,000 FEET WITH NO
SIGNIFICANT WEATHER AND/OR OBSTRUCTIONS TO VISIBILITY. N/A MEANS
CURRENT SKY AND/OR WEATHER CONDITIONS ARE NOT AVAILABLE.

MNZ060>063-068>070-301600-
   Twin Cities Metro

CITY           SKY/WX    TMP DP  RH WIND       PRES   REMARKS
TWIN CITIES    CLOUDY    41  35  79 CALM      30.07R
ST PAUL        CLOUDY    41  35  79 CALM      30.08R
CRYSTAL        CLOUDY    43  35  73 N3        30.06R
LAKEVILLE      LGT RAIN  37  36  93 CALM      30.06S
EDEN PRAIRIE   CLOUDY    42  35  76 CALM      30.06R
SOUTH ST PAUL  CLOUDY    41  36  81 CALM      30.07S
LAKE ELMO      CLOUDY    41  36  81 CALM      30.07S
$$
MNZ001>005-007-008-013>017-022>024-027-028-301600-
   Northwest Minnesota

CITY           SKY/WX    TMP DP  RH WIND       PRES   REMARKS
BEMIDJI        CLOUDY    36  33  89 N6        30.13R
HALLOCK        PTSUNNY   36  34  93 N15       30.23R
ROSEAU         CLOUDY    37  32  81 NW9       30.18R
WARROAD        CLOUDY    36  30  80 NW9       30.17R
THIEF RVR FALL CLOUDY    36  30  80 N9        30.19R
CROOKSTON      CLOUDY    34  32  93 N13       30.22R WCI  25
FOSSTON        PTSUNNY   34  30  86 N14       30.17R WCI  24
DETROIT LAKES  PTSUNNY   37  36  93 N3        30.14R
MOORHEAD       CLOUDY    39  39 100 N16       30.17R
PARK RAPIDS    CLOUDY    36  34  92 N8        30.11R
MAHNOMEN       CLOUDY    36  34  93 N15       30.14R
$$
MNZ006-009>011-018-025>026-301600-
   North Central Minnesota

CITY           SKY/WX    TMP DP  RH WIND       PRES   REMARKS
BAUDETTE       CLOUDY    37  32  82 NW14      30.13R
FLAG ISLAND    CLOUDY    37  32  81 NW13      30.14R
INTL FALLS     CLOUDY    36  34  92 NW8       30.09R
WASKISH        CLOUDY    36  34  93 NW7G16    30.14R
BIG FORK       PTSUNNY   36  30  80 NW3       30.11R
LONGVILLE      LGT RAIN  36  34  93 CALM      30.10S
GRAND RAPIDS   CLOUDY    36  30  80 NW8       30.09R
CRANE LAKE     CLOUDY    36  34  93 CALM      30.09R
ORR            CLOUDY    34  30  86 NW5       30.06R WCI  30
COOK           CLOUDY    34  34 100 NW6       30.08R WCI  29
WALKER         CLOUDY    36  33  90 N3        30.11R
$$
MNZ012-019>021-037-301600-
   Northeast Minnesota

CITY           SKY/WX    TMP DP  RH WIND       PRES   REMARKS
DULUTH         CLOUDY    37  32  82 NW8       30.06R
ELY            LGT RAIN  36  34  93 NW3       30.05S
HIBBING        CLOUDY    37  30  75 N10       30.08R
EVELETH        PTSUNNY   36  34  93 NW8       30.08R
DULUTH HARBOR  CLOUDY    41  34  75 NW8       30.09S
TWO HARBORS    CLOUDY    39 N/A N/A CALM      30.05R
SILVER BAY     CLOUDY    39  34  81 NW6       30.03S
GRAND MARAIS     N/A     42  34  73 VRB5      30.03S
$$
MNZ029>031-032-039>041-046>048-054>057-064-301600-
   West Central Minnesota

CITY           SKY/WX    TMP DP  RH WIND       PRES   REMARKS
FERGUS FALLS   CLOUDY    39  37  93 N5        30.14R FOG
WHEATON        CLOUDY    37  37 100 N8        30.14R
MORRIS         CLOUDY    41  37  87 N5        30.09R
ALEXANDRIA     CLOUDY    40  35  83 N7        30.10R
ELBOW LAKE     CLOUDY    40  38  95 N6        30.11R
WADENA         CLOUDY    36  34  93 N3        30.11R FOG
GLENWOOD       MOSUNNY   39  37  93 N3        30.09R
APPLETON       PTSUNNY   41  37  87 CALM      30.09R
BENSON         CLOUDY    39  39 100 NE6       30.09R
ORTONVILLE     CLOUDY    39  37  93 CALM      30.09R
MADISON        CLOUDY    43  41  93 CALM      30.08R FOG
WILLMAR        PTSUNNY   43  39  87 CALM      30.09R
$$
MNZ033>034-036-042>043-049>051-058-059-301600-
   Central Minnesota

CITY           SKY/WX    TMP DP  RH WIND       PRES   REMARKS
ST CLOUD       CLOUDY    41  35  79 CALM      30.08R
SAUK CENTRE    CLOUDY    38  36  89 NW3       30.09R
PAYNESVILLE    CLOUDY    37  34  90 NW6       30.09R
AITKIN         CLOUDY    39  34  81 N3        30.09R
PINE RIVER     DRIZZLE   37  37 100 NW3       30.14R
BRAINERD       CLOUDY    37  35  92 N6        30.10R
STAPLES        DRIZZLE   37  36  93 N5        30.11R
LONG PRAIRIE   CLOUDY    36  36 100 NW7       30.10R
LITTLE FALLS   CLOUDY    37  34  87 CALM      30.10R
LITCHFIELD     CLOUDY    41  39  93 CALM      30.07R
BUFFALO        CLOUDY    40  35  80 CALM      30.08R
MAPLE LAKE     CLOUDY    41  38  87 N6        30.08R
$$
MNZ037-044-045-052-053-301600-
   East Central Minnesota

CITY           SKY/WX    TMP DP  RH WIND       PRES   REMARKS
PRINCETON      CLOUDY    39  36  87 N3        30.09R
MORA           PTSUNNY   36  32  87 CALM      30.09F
CAMBRIDGE      CLOUDY    41  32  70 CALM      30.07R
RUSH CITY      CLOUDY    38  34  84 CALM      30.09R
MOOSE LAKE     CLOUDY    36  32  87 N3        30.07R
HINCKLEY       DRIZZLE   37  36  93 CALM      30.09R
CLOQUET        CLOUDY    37  34  87 NW5       30.07R
MCGREGOR       CLOUDY    36  34  93 CALM      30.10R
$$
MNZ071>073-080-081-089-090-097-098-301600-
   Southwest Minnesota

CITY           SKY/WX    TMP DP  RH WIND       PRES   REMARKS
MONTEVIDEO     CLOUDY    39  39 100 NE5       30.09R
GRANITE FALLS  CLOUDY    40  38  91 NW3       30.09R
CANBY          CLOUDY    40  39  95 W6        30.09R
MARSHALL       SUNNY     43  36  75 N10       30.06R
REDWOOD FALLS  CLOUDY    42  38  85 N6        30.06R
OLIVIA         MOSUNNY   41  36  81 N7        30.06R
PIPESTONE      SUNNY     45  36  70 N13       30.05R
WINDOM         MOSUNNY   45  36  70 SE3       30.02S
WORTHINGTON    MOSUNNY   45  34  65 NW7       30.03R
JACKSON        CLOUDY    45  34  65 CALM      30.03R
TRACY          MOSUNNY   44  38  79 NW9       30.06R
SLAYTON        SUNNY     44  35  71 CALM      30.05R
$$
MNZ065>067-074>077-082>085-091>093-301600-
   South Central Minnesota

CITY           SKY/WX    TMP DP  RH WIND       PRES   REMARKS
MANKATO        CLOUDY    43  34  70 SE7       30.05R
NEW ULM        CLOUDY    43  37  81 CALM      30.05R
ST JAMES       PTSUNNY   45  36  70 CALM      30.05R
FAIRMONT       CLOUDY    45  34  65 SE6       30.03R
GLENCOE        CLOUDY    42  38  86 CALM      30.06R
FARIBAULT      LGT RAIN  41  36  81 CALM      30.06S
OWATONNA       DRIZZLE   43  36  75 SE5       30.06R
WASECA         CLOUDY    41  32  70 E6        30.06S
ALBERT LEA     CLOUDY    41  37  87 SE5       30.05S
$$
MNZ078>079-086>088-094>096-301600-
   Southeast Minnesota

CITY           SKY/WX    TMP DP  RH WIND       PRES   REMARKS
ROCHESTER      CLOUDY    39  35  86 S7        30.07R
RED WING       CLOUDY    41  36  81 CALM      30.06S
STANTON        LGT RAIN  42  36  80 CALM      30.05R
DODGE CENTER   CLOUDY    43  37  81 S5        30.06R
WINONA         CLOUDY    39  37  93 CALM      30.08S
AUSTIN         PTSUNNY   39  36  87 CALM      30.06R
PRESTON        CLOUDY    38  33  82 S6        30.07S
$$
ABBREVIATIONS USED IN REMARKS
   TC - TEMPERATURES IN CELSIUS
  WCI - WIND CHILL INDEX
   HX - HEAT INDEX
  VSB - VISIBILITY
$$



USA.gov is the U.S. government's official web portal to all federal, state and local government web resources and services.